Location: DARK SKY Beskydy - Park tmavé oblohy, www.darkskybeskydy.cz
(49.4926°N, 18.5016°E)
Time: 18:03:52
(UTC+02:00)

PCSat - Pass Details

Date: 10 August 2024
Orbit: 781 x 793 km, 67.1° (Epoch: 08 September)

Event Time Altitude Azimuth Distance (km) Brightness Sun altitude
Rises 02:46:36 0° 321° (NW) 3,301 13.1 -20.2°
Reaches altitude 10° 02:49:04 10° 318° (NW) 2,368 12.2 -20.0°
Maximum altitude 02:54:21 54° 242° (WSW) 957 9.6 -19.6°
Enters shadow 02:56:31 33° 182° (S) 1,308 10.2 -19.4°
